Location: Kaseke
(18.0171°S, 31.0526°E)
Time: 12:41:11
(UTC+00:00)

Cosmos 1733 - Pass Details

Date: 14 July 2020
Orbit: 506 x 521 km, 82.5° (Epoch: 07 August)

Event Time Altitude Azimuth Distance (km) Brightness Sun altitude
Exits shadow 02:58:18 31° 329° (NNW) 920 4.3 -20.8°
Drops below altitude 10° 03:00:30 10° 348° (NNW) 1,720 5.9 -20.3°
Sets 03:02:38 0° 354° (N) 2,596 6.9 -19.8°
